CAPE
117 65 52 0 525 385 305 409 188 68 17 0 23 13 0 0 0 0 0 0 0 0 0 0 0 0 0 0 0 0 0 0 0 0 0 0 0 0 0 0 0 0 0
257 330 393 391 901 643 413 384 319 188 93 25 103 0 0 0 0 0 0 0 0 0 0 0 0 0 0 0 0 0 0 0 0 0 0 0 0 0 0 0 0 0 0
431 535 677 583 791 588 465 317 224 232 185 149 0 0 0 0 0 0 0 0 0 0 0 0 0 0 0 0 0 0 0 0 0 0 0 0 0 0 0 0 0 0 0
477 631 807 684 715 462 287 354 296 283 368 14 0 0 0 0 0 0 0 0 0 0 0 0 0 0 0 0 0 0 0 0 0 0 0 0 0 0 0 0 0 0 0
445 584 759 778 648 602 442 308 323 97 0 0 0 0 0 0 0 0 0 0 0 0 0 0 0 0 0 0 0 0 0 0 0 0 0 0 0 0 0 0 0 0 0
353 497 711 759 677 251 58 0 0 0 0 0 0 0 0 0 0 0 0 0 0 0 0 0 0 0 0 0 0 0 0 0 0 0 0 0 0 0 0 0 0 0 0
375 308 146 2 0 0 0 0 0 0 0 0 0 0 0 0 0 0 0 0 0 0 0 0 0 0 0 0 0 0 0 0 0 0 0 0 0 0 0 0 0 0 0
130 7 0 0 0 0 0 0 0 0 0 0 0 0 0 0 0 0 0 0 0 0 0 0 0 0 0 0 0 0 0 0 0 0 0 0 0 0 0 0 0 0 0
0 0 0 0 0 0 0 0 0 0 0 0 0 0 0 0 0 0 0 0 0 0 0 0 0 0 0 0 0 0 0 0 0 0 0 0 0 0 0 0 0 0 0
0 0 0 0 0 0 0 0 0 0 0 0 0 0 0 0 0 0 0 0 0 0 0 0 0 0 0 0 0 0 0 0 0 1 0 0 0 0 0 0 0 0 0
0 0 0 0 0 0 0 0 0 0 0 0 0 0 0 0 0 0 0 0 0 0 0 0 0 0 0 0 0 0 0 0 0 0 0 0 0 0 0 0 0 0 0
0 0 0 0 0 0 0 0 0 0 0 0 0 0 0 0 0 0 0 0 0 0 0 0 0 0 0 0 0 0 0 0 0 0 0 0 0 0 0 0 0 0 0
0 0 0 0 0 0 0 0 0 0 0 0 0 0 0 0 0 0 0 0 0 0 0 0 0 0 0 0 0 0 0 0 0 0 0 0 0 0 0 0 0 0 0
0 0 0 0 0 0 0 0 0 0 0 0 0 0 0 0 0 0 0 0 0 0 0 0 0 0 0 0 0 0 0 0 0 0 0 0 0 0 0 0 0 0 0
0 0 0 0 0 0 0 0 0 0 0 0 0 0 0 0 0 0 0 0 0 0 0 0 0 0 0 0 0 0 0 0 0 0 0 0 0 0 0 0 0 0 0
0 0 0 0 0 0 0 0 0 0 0 0 0 0 0 0 0 0 0 0 0 0 0 0 0 0 0 0 0 0 0 0 0 0 0 0 0 0 0 0 0 0 0
0 0 0 0 0 0 0 0 0 0 0 0 0 0 0 0 0 0 0 0 0 0 0 0 0 0 0 0 0 0 0 0 0 0 0 0 0 0 0 0 0 0 0
0 0 0 0 0 0 0 0 0 0 0 0 0 0 0 0 0 0 0 0 0 0 0 0 0 0 0 0 0 0 0 0 0 0 0 0 0 0 0 0 0 0 0
0 0 0 0 0 0 0 0 0 0 0 0 0 0 0 0 0 0 0 0 0 0 0 0 0 0 0 0 0 0 0 0 0 0 0 0 0 0 0 0 0 0 0
0 0 0 0 0 0 0 0 0 0 0 0 0 0 0 0 0 0 0 0 0 0 0 0 0 0 0 0 0 0 0 0 0 0 0 0 0 0 0 0 0 0 0
0 0 0 0 0 0 0 0 0 0 0 0 0 0 0 0 0 0 0 0 0 0 0 0 0 0 0 0 0 0 0 0 0 0 0 0 0 0 0 0 0 0 0
0 0 0 0 0 0 0 0 0 0 0 0 0 0 0 0 0 0 0 0 0 0 0 0 0 0 0 0 0 0 0 0 0 0 0 0 0 0 0 0 0 0 0
0 0 0 0 0 0 0 0 0 0 0 0 0 0 0 0 0 0 0 0 0 0 0 0 0 0 0 0 0 0 0 0 0 0 0 0 0 0 0 0 0 0 0
0 0 0 0 0 0 0 0 0 0 0 0 0 0 0 0 0 0 0 0 0 0 0 0 0 0 0 0 0 0 0 0 0 0 0 0 0 0 0 0 0 0 0
0 0 0 0 0 0 0 0 0 0 0 0 0 0 0 0 0 0 0 0 0 0 0 0 0 0 0 0 0 0 0 0 0 0 0 0 0 0 0 0 0 0 0
0 0 0 0 0 0 0 0 0 0 0 0 0 0 0 0 0 0 0 0 0 0 0 0 0 0 0 0 0 1 0 0 0 0 0 0 0 0 0 0 0 0 0
CIN
-123 -99 -130 -0 -122 -159 -167 -165 -269 -312 -310 -0 -237 -67 -0 -0 -0 -0 -0 -0 -0 -0 -0 -0 -0 -0 -0 -0 -0 -0 -0 -0 -0 -0 -0 -0 -0 -0 -0 -0 -0 -0 -0
-117 -120 -97 -84 -95 -160 -235 -238 -246 -307 -275 -251 -145 -0 -0 -0 -0 -0 -0 -0 -0 -0 -0 -0 -0 -0 -0 -0 -0 -0 -0 -0 -0 -0 -0 -0 -0 -0 -0 -0 -0 -0 -0
-149 -154 -127 -124 -154 -197 -244 -276 -270 -233 -202 -152 -0 -0 -0 -0 -0 -0 -0 -0 -0 -0 -0 -0 -0 -0 -0 -0 -0 -0 -0 -0 -0 -0 -0 -0 -0 -0 -0 -0 -0 -0 -0
-111 -148 -160 -243 -198 -220 -272 -224 -197 -177 -101 -28 -0 -0 -0 -0 -0 -0 -0 -0 -0 -0 -0 -0 -0 -0 -0 -0 -0 -0 -0 -0 -0 -0 -0 -0 -0 -0 -0 -0 -0 -0 -0
-178 -181 -180 -229 -225 -188 -218 -223 -168 -178 -0 -0 -0 -0 -0 -0 -0 -0 -0 -0 -0 -0 -0 -0 -0 -0 -0 -0 -0 -0 -0 -0 -0 -0 -0 -0 -0 -0 -0 -0 -0 -0 -0
-198 -179 -178 -151 -169 -282 -189 -0 -0 -0 -0 -0 -0 -0 -0 -0 -0 -0 -0 -0 -0 -0 -0 -0 -0 -0 -0 -0 -0 -0 -0 -0 -0 -0 -0 -0 -0 -0 -0 -0 -0 -0 -0
-222 -257 -327 -173 -0 -0 -0 -0 -0 -0 -0 -0 -0 -0 -0 -0 -0 -0 -0 -0 -0 -0 -0 -0 -0 -0 -0 -0 -0 -0 -0 -0 -0 -0 -0 -0 -0 -0 -0 -0 -0 -0 -0
-302 -259 -0 -0 -0 -0 -0 -0 -0 -0 -0 -0 -0 -0 -0 -0 -0 -0 -0 -0 -0 -0 -0 -0 -0 -0 -0 -0 -0 -0 -0 -0 -0 -0 -0 -0 -0 -0 -0 -0 -0 -0 -0
-0 -0 -0 -0 -0 -0 -0 -0 -0 -0 -0 -0 -0 -0 -0 -0 -0 -0 -0 -0 -0 -0 -0 -0 -0 -0 -0 -0 -0 -0 -0 -0 -0 -0 -0 -0 -0 -0 -0 -0 -0 -0 -0
-0 -0 -0 -0 -0 -0 -0 -0 -0 -0 -0 -0 -0 -0 -0 -0 -0 -0 -0 -0 -0 -0 -0 -0 -0 -0 -0 -0 -0 -0 -4 -18 -0 -42 -0 -0 -0 -0 -0 -0 -0 -0 -0
-0 -0 -0 -0 -0 -0 -0 -0 -0 -0 -0 -0 -0 -0 -0 -0 -0 -0 -0 -0 -0 -0 -0 -0 -0 -0 -0 -0 -0 -0 -0 -0 -0 -0 -0 -0 -0 -0 -0 -0 -0 -0 -0
-0 -0 -0 -0 -0 -0 -0 -0 -0 -0 -0 -0 -0 -0 -0 -0 -0 -0 -0 -0 -0 -0 -0 -0 -0 -0 -0 -0 -0 -0 -1 -0 -0 -0 -0 -0 -0 -0 -0 -0 -0 -0 -0
-0 -0 -0 -0 -0 -0 -0 -0 -0 -0 -0 -0 -0 -0 -0 -0 -0 -0 -0 -0 -0 -0 -0 -0 -0 -0 -0 -0 -0 -0 -0 -0 -0 -0 -0 -0 -0 -0 -0 -0 -0 -0 -0
-0 -0 -0 -0 -0 -0 -0 -0 -0 -0 -0 -0 -0 -0 -0 -0 -0 -0 -0 -0 -0 -0 -0 -0 -0 -0 -0 -0 -0 -0 -0 -0 -0 -0 -0 -0 -0 -0 -0 -0 -0 -0 -0
-0 -0 -0 -0 -0 -0 -0 -0 -0 -0 -0 -0 -0 -0 -0 -0 -0 -0 -0 -0 -0 -0 -0 -0 -0 -0 -0 -0 -0 -0 -0 -0 -0 -0 -0 -0 -0 -0 -0 -0 -0 -0 -0
-0 -0 -0 -0 -0 -0 -0 -0 -0 -0 -0 -0 -0 -0 -0 -0 -0 -0 -0 -0 -0 -0 -0 -0 -0 -0 -0 -0 -0 -0 -0 -0 -0 -0 -0 -0 -0 -0 -0 -0 -0 -0 -0
-0 -0 -0 -0 -0 -0 -0 -0 -0 -0 -0 -0 -0 -0 -0 -0 -0 -0 -0 -0 -0 -0 -0 -0 -0 -0 -0 -0 -0 -0 -0 -0 -0 -0 -0 -0 -0 -0 -0 -0 -0 -0 -0
-0 -0 -0 -0 -0 -0 -0 -0 -0 -0 -0 -0 -0 -0 -0 -0 -0 -0 -0 -0 -0 -0 -0 -0 -0 -0 -0 -0 -0 -0 -0 -0 -0 -0 -0 -0 -0 -0 -0 -0 -0 -0 -0
-0 -0 -0 -0 -0 -0 -0 -0 -0 -0 -0 -0 -0 -0 -0 -0 -0 -0 -0 -0 -0 -0 -0 -0 -0 -0 -0 -0 -0 -0 -0 -0 -0 -0 -0 -0 -0 -0 -0 -0 -0 -0 -0
-0 -0 -0 -0 -0 -0 -0 -0 -0 -0 -0 -0 -0 -0 -0 -0 -0 -0 -0 -0 -0 -0 -0 -0 -0 -0 -0 -0 -0 -0 -0 -0 -0 -0 -0 -0 -0 -0 -0 -0 -0 -0 -0
-0 -0 -0 -0 -0 -0 -0 -0 -0 -0 -0 -0 -0 -0 -0 -0 -0 -0 -0 -0 -0 -0 -0 -0 -0 -0 -0 -0 -0 -0 -0 -0 -0 -0 -0 -0 -0 -0 -0 -0 -0 -0 -0
-0 -0 -0 -0 -0 -0 -0 -0 -0 -0 -0 -0 -0 -0 -0 -0 -0 -0 -0 -0 -0 -0 -0 -0 -0 -0 -0 -0 -0 -0 -0 -0 -0 -0 -0 -0 -0 -0 -0 -0 -0 -0 -0
-0 -0 -0 -0 -0 -0 -0 -0 -0 -0 -0 -0 -0 -0 -0 -0 -0 -0 -0 -0 -0 -0 -0 -0 -0 -0 -0 -0 -0 -0 -0 -0 -0 -0 -0 -0 -0 -0 -0 -0 -0 -0 -0
-0 -0 -0 -0 -0 -0 -0 -0 -0 -0 -0 -0 -0 -0 -0 -0 -0 -0 -0 -0 -0 -0 -0 -0 -0 -0 -0 -0 -0 -0 -0 -0 -0 -0 -0 -0 -0 -0 -0 -0 -0 -0 -0
-0 -0 -0 -0 -0 -0 -0 -0 -0 -0 -0 -0 -0 -0 -0 -0 -0 -0 -0 -0 -0 -0 -0 -0 -0 -0 -0 -0 -0 -0 -0 -0 -0 -0 -0 -0 -0 -0 -0 -0 -0 -0 -0
-0 -0 -0 -0 -0 -0 -0 -0 -0 -0 -0 -0 -0 -0 -0 -0 -0 -0 -0 -0 -0 -0 -0 -0 -0 -0 -0 -0 -0 -0 -0 -0 -0 -0 -0 -0 -0 -0 -0 -0 -0 -0 -0
Wind_Speed
8 8 6 10 13 15 16 14 16 12 9 4 4 3 4 3 3 4 8 7 6 7 6 4 5 5 4 3 3 2 3 3 3 2 4 3 3 6 4 4 5 6 4
8 8 8 9 17 15 12 11 14 14 9 7 5 4 5 4 4 5 6 7 7 6 5 5 3 3 3 5 4 3 3 2 3 1 1 4 4 4 4 3 3 5 4
13 9 9 9 13 14 12 12 12 12 9 8 5 5 5 4 3 4 4 4 6 5 7 7 5 5 4 3 3 3 3 0 3 4 2 4 1 2 3 4 5 7 5
12 11 10 9 11 12 7 12 12 10 8 8 10 14 6 5 3 4 3 4 6 6 6 6 6 5 3 4 3 1 1 2 3 3 3 2 3 0 4 4 3 5 6
16 13 11 12 12 13 12 9 7 7 6 8 9 9 9 6 4 5 7 5 5 7 7 6 6 6 4 4 6 5 5 4 3 2 2 2 2 2 2 3 4 3 3
10 9 12 12 10 7 8 9 9 7 9 10 8 11 13 8 6 4 4 3 3 4 6 6 5 4 4 4 3 3 5 4 3 1 1 2 2 2 1 1 2 3 4
12 14 13 9 8 11 9 8 10 9 10 11 9 9 9 9 8 6 4 4 2 2 3 4 5 3 4 3 3 4 3 2 1 0 2 2 2 2 1 2 2 2 3
12 13 13 11 9 9 8 8 10 9 9 8 8 7 8 5 5 5 4 3 3 2 4 4 4 5 5 2 3 2 1 2 1 3 3 1 2 2 0 2 2 3 2
10 12 11 12 10 9 8 8 9 8 8 8 7 6 6 6 6 6 6 4 4 3 4 3 4 4 4 3 2 2 3 3 3 5 3 1 2 3 3 0 2 3 3
12 13 12 13 11 11 8 8 8 10 8 8 7 5 6 6 6 6 5 5 5 3 2 3 4 4 5 5 3 3 2 3 4 3 5 0 1 2 3 2 2 0 3
14 15 12 14 14 12 9 9 9 10 9 8 6 7 5 5 5 5 5 6 4 3 1 2 3 5 6 6 3 3 3 2 3 1 4 4 2 1 2 3 3 3 2
15 15 15 15 14 14 12 10 10 12 11 8 7 7 6 6 6 5 5 6 5 3 3 0 3 5 2 2 2 4 5 3 4 4 5 3 1 3 3 2 3 2 3
13 14 13 16 16 13 13 11 12 13 12 10 8 7 6 6 6 6 5 6 5 5 3 2 5 4 4 1 3 4 5 5 4 3 1 3 2 1 1 1 1 1 3
15 14 13 15 16 15 15 13 10 13 12 10 9 8 8 7 5 5 5 5 4 5 3 4 6 6 6 4 4 4 4 4 4 4 2 2 4 4 3 1 2 1 3
3 8 14 12 12 12 11 11 9 12 11 9 8 8 7 7 6 4 4 2 3 4 6 6 6 5 5 3 5 4 4 3 3 3 4 2 3 4 4 1 2 2 2
7 6 9 11 13 12 12 11 11 11 12 9 7 6 7 8 7 4 1 4 5 6 6 6 6 5 3 10 9 6 4 2 2 2 3 3 4 5 5 6 7 5 3
7 7 7 9 9 11 13 12 13 11 9 8 8 8 8 7 5 5 4 5 6 5 6 6 5 3 6 12 11 9 4 1 2 0 1 3 4 5 3 3 7 9 12
7 6 3 5 7 7 8 9 11 10 9 8 9 7 9 8 8 6 5 6 4 6 5 5 6 5 5 13 12 9 4 2 2 1 1 2 4 3 3 2 4 5 5
3 1 2 4 6 8 8 11 9 9 12 12 12 11 10 8 5 3 5 6 5 5 4 5 5 6 4 9 10 6 3 1 3 2 3 3 4 5 1 1 4 5 6
12 13 15 15 14 8 14 17 15 15 13 11 12 11 8 2 3 4 4 4 4 5 5 3 4 8 7 12 12 8 3 3 2 1 2 3 5 3 3 3 4 5 8
15 14 17 16 15 14 17 18 15 14 10 11 11 4 2 2 3 4 2 3 5 6 6 6 5 6 8 10 16 14 4 4 2 2 1 3 6 5 8 9 4 6 6
15 15 16 14 12 14 16 15 14 9 6 6 4 2 1 3 4 3 3 3 5 6 6 6 5 4 7 12 16 15 12 8 4 4 3 3 9 9 11 9 11 14 9
13 11 13 13 10 10 10 11 8 7 5 3 3 2 3 4 4 4 4 4 5 2 3 4 2 3 4 5 15 19 16 12 4 4 7 10 10 12 10 15 15 7 3
11 9 11 10 8 6 6 6 5 5 4 4 2 4 4 5 5 4 4 4 3 2 2 2 3 3 4 4 5 7 7 8 6 6 5 5 6 7 8 6 7 4 4
8 7 7 6 5 4 4 4 4 3 1 3 4 5 4 5 5 5 5 4 6 5 4 4 4 4 5 5 7 8 6 6 8 3 2 2 2 3 4 3 4 3 3
6 6 6 6 3 1 1 2 2 2 3 4 4 4 4 4 4 5 5 6 9 10 11 12 7 5 11 10 12 13 15 15 12 4 3 4 4 4 4 4 4 2 3
Wind_Direction
159 148 131 135 138 141 146 143 139 140 129 154 137 150 164 134 128 111 92 79 80 69 75 68 60 44 54 35 36 37 14 322 358 52 354 320 349 356 26 22 13 14 25
157 145 137 111 143 149 150 139 141 144 155 162 180 158 159 143 143 101 96 96 90 94 101 94 77 53 39 24 15 18 335 321 26 50 7 355 335 14 3 23 30 20 2
162 162 148 121 131 137 148 146 153 160 164 180 126 105 93 84 88 97 107 128 123 94 76 73 69 45 43 6 341 349 75 346 326 49 112 3 324 324 353 315 8 13 14
166 161 152 124 136 139 154 160 173 171 176 155 139 146 147 147 155 133 119 98 103 91 94 90 74 55 30 1 322 311 221 129 55 14 28 91 179 25 350 349 357 358 356
166 159 148 144 153 156 154 184 156 153 145 160 134 128 122 116 104 104 115 99 79 75 71 66 53 31 13 344 338 345 64 74 99 84 352 353 350 35 106 295 315 337 328
144 137 144 143 142 127 127 133 128 104 95 94 100 116 122 125 112 115 106 95 90 77 65 57 52 25 356 2 45 71 64 69 74 65 332 181 203 248 209 263 279 256 278
135 130 128 126 116 119 128 127 115 113 108 105 104 109 121 119 123 127 125 101 84 64 45 58 35 5 348 105 87 66 50 36 20 278 265 258 227 180 208 202 282 281 288
134 136 138 129 130 129 134 121 125 125 117 115 115 114 118 122 123 121 115 106 99 101 58 46 21 7 3 243 139 105 316 295 311 257 276 291 291 313 236 197 142 324 292
135 141 142 141 141 144 154 144 132 125 124 120 114 112 115 116 128 121 103 115 99 75 50 26 18 357 350 311 229 149 280 316 281 256 247 277 296 333 300 83 141 150 287
148 155 156 156 158 157 158 151 140 142 138 127 124 129 135 140 136 128 129 123 111 76 32 17 12 334 315 311 225 218 272 250 281 217 174 300 105 262 305 318 320 263 260
165 167 166 166 164 162 158 158 144 139 135 135 137 147 163 158 149 146 152 143 129 129 77 25 331 303 303 330 8 307 282 305 313 257 176 196 219 2 339 354 27 40 12
175 171 164 162 165 165 165 160 149 146 150 150 148 167 169 179 169 175 166 152 156 166 150 178 293 292 190 333 343 293 287 301 92 85 75 85 351 314 40 79 44 36 309
175 174 162 166 167 168 168 162 153 154 157 154 156 171 185 188 184 182 168 163 180 176 170 263 280 261 219 285 316 56 50 53 80 104 109 270 285 103 160 72 22 341 347
182 181 169 171 169 171 166 164 155 157 160 156 166 173 183 187 180 154 160 192 186 168 202 255 266 262 224 181 129 99 64 36 18 340 339 356 130 184 209 224 256 309 322
192 193 171 168 168 165 162 168 163 159 156 155 160 183 181 151 150 112 78 61 178 209 226 243 253 270 210 147 143 131 119 74 8 8 16 52 231 206 181 33 303 285 276
50 63 171 166 174 170 167 173 166 157 153 153 165 132 122 126 110 123 55 279 268 263 250 255 246 261 177 161 149 147 131 78 356 341 345 342 45 98 57 54 24 343 299
73 62 139 175 165 163 171 174 165 156 145 144 146 130 120 106 108 54 358 310 282 281 263 250 256 230 166 170 152 148 144 158 280 288 7 315 96 107 117 12 354 333 321
54 55 77 136 172 172 170 144 145 142 137 125 105 103 84 80 55 20 329 317 317 285 260 263 264 167 185 174 161 149 145 209 284 205 264 274 164 176 128 23 325 299 299
25 22 185 192 176 162 132 122 111 106 98 91 83 73 66 51 31 337 293 278 289 295 288 266 272 153 148 165 155 144 158 162 272 287 305 305 171 186 58 356 304 293 288
49 55 47 49 42 46 95 90 88 87 79 78 79 63 51 324 309 279 285 255 279 285 300 296 142 175 168 180 176 172 162 191 224 299 13 97 151 182 313 264 260 281 286
66 61 56 56 49 58 76 80 78 69 66 72 74 66 262 321 268 264 283 295 301 300 298 263 231 178 176 189 194 191 182 190 179 180 261 201 189 224 280 291 229 240 264
71 67 71 63 62 70 77 75 71 77 79 76 84 108 289 295 282 294 309 330 316 308 299 282 239 222 186 194 202 201 199 186 169 205 222 231 233 278 297 288 270 272 271
83 77 82 80 69 73 92 104 133 127 121 149 210 11 319 281 290 280 274 296 285 283 318 328 277 245 225 200 206 201 200 196 183 193 231 248 253 271 284 276 277 274 242
81 86 88 92 97 82 69 80 73 74 59 37 333 267 269 275 275 269 259 249 239 239 261 272 279 265 272 257 196 205 203 199 202 220 236 237 235 239 254 269 270 245 221
87 90 90 85 80 77 71 59 62 56 324 291 290 279 263 267 270 259 243 239 230 198 219 228 228 243 265 248 215 200 197 200 213 172 167 231 247 256 269 254 253 259 232
73 74 76 80 83 77 251 255 222 250 252 262 262 253 257 259 262 267 282 269 232 248 256 249 217 250 242 211 196 212 222 221 204 186 184 218 228 236 250 244 258 265 238